CZ-6A DEB, 58434

Orbit data source: Space-Track

CZ-6A DEB, 58434 is space debris in SSO originally from a launch on Fri, 11 Nov 2022 UTC launched from the Taiyaun Space Center, China (TSC). Debris objects in space refer to the collection of defunct objects orbiting the Earth. Examples of debris include non-operational satellites, rocket bodies, and fragments generated from explosions, collisions, or faulty payload assembly.

Loading next visibility...
Identifier
58434, 2022-151AJC
Orbit
SSO
Country
Flag of CNCN / PRC
Related business
Manufacturer
SAST
Mission
Spacecraft
Bus & Motor
Unknown
Mass
Unknown
Launch date (UTC)
2022-11-11 (3 years ago)
Launch vehicle
Unknown
Launch site
Taiyaun Space Center, China (TSC)
Object type
Payload
Rocket body
Debris
Shape & HBR
Unknown shape, 0.1 m
Radar Cross Section
Small (<0.1 m²)

Expand to show TLE details & history
Last TLE update: 2 days ago

TLE from 2 days ago
0 CZ-6A DEB
1 58434U 22151AJC 25350.35049440  .00000249  00000-0  10288-3 0  9996
2 58434  98.7345  26.1500 0104102 235.8563 123.2714 14.32545433136493
Epoch: 2025-12-16T08:24Z
TLE epoch observation values (Epoch: 2025-12-16T08:24:42.716Z)
Latitude
0.00001°
Longitude
174.73605°
Altitude
827.611 km
Speed
7.418 km/s
True Right ascension
01h 44m 35s
True Declination
0° 00' 00"
Sunlit
Object was in full shadow at epoch
Visualization orbit readout
Latitude
Unknown
Longitude
Unknown
Altitude
Unknown
Speed
Unknown
Apparent Right ascension
Unknown
Apparent Declination
Unknown
Sunlit
N/A
Visualization observer readout
Local Sidereal Time
02:06:44
Azimuth
Unknown
Elevation
Unknown
Doppler factor
Unknown
Orbital elements
Apogee altitude
854.899 km
Perigee altitude
705.856 km
Semi-major axis
7,158.515 km
Eccentricity
0.01041
Inclination
98.7345°
RAAN
26.15°
Arg. of periapsis
235.8563°
True anomaly
124.26166°
Mean anomaly
123.2714°
Eccentric anomaly
123.76724°
Mean motion
3.58351 °/min
Orbital period
100.46 mins
BSTAR
0.00010288
Loading maneuver chart data...
Computing Atmospheric mass density...
Loading historical data...
Loading historical data...
Loading historical data...
Loading historical data...
Loading historical data...
Loading historical data...
Loading historical data...

Documentation

Showing up to 5 results
|